Dewpoint
-12 -10 -10 -11 -7 -5 -4 0 5 -3 -2 3 1 4 1 0 0 1 1 1 -1 -1 -0 -1 -1 -0 1 0 -0 -0 -1 -0 3 1 1 0 1 -0 -2 -1 2 -0 0 -2
-7 -11 -9 -11 -7 -4 -2 1 1 -3 -2 5 2 1 0 0 0 -0 0 1 -0 -1 1 2 1 2 1 1 1 1 -1 0 4 2 1 1 2 0 -1 -1 -0 2 -0 -4
-4 -8 -11 -10 -7 -3 -3 -0 5 1 0 0 -1 -0 0 1 0 -1 -1 -1 -1 -1 0 0 2 2 2 2 1 -0 0 0 2 1 2 1 2 1 0 -1 2 -1 -2 -6
-1 -4 -10 -10 -8 -5 -4 -1 1 -2 1 -2 -2 -2 -1 -1 -1 -1 -2 -2 -2 -3 -1 -0 2 2 2 2 1 0 -1 1 0 -2 -2 -1 1 2 2 1 1 0 -3 -4
0 -2 -5 -10 -10 -8 -6 -0 -1 -2 -2 -1 -2 -3 -3 -3 -1 -2 -3 -2 -2 -3 -3 -3 -0 -0 1 -0 1 0 -1 0 -2 1 -3 -3 -3 -3 -0 1 -0 -0 -2 -2
1 0 -2 -7 -10 -9 -4 -6 -4 -3 -2 -2 -4 -4 -3 -3 -2 -1 -2 -3 -4 -3 -1 -2 -1 -2 -2 -2 -1 -1 -2 -1 -1 -3 -4 -4 -4 -5 -5 -4 -3 -2 -1 -5
1 1 0 -2 -7 -9 -8 -7 -4 -2 -5 -4 -4 -5 -2 -2 -2 -2 -2 -3 -5 -1 -2 -2 -3 -3 -2 -2 -2 -2 -1 -2 -1 2 -3 -2 -9 -7 -6 -6 -6 -5 -4 -6
0 1 1 0 -2 -6 -8 -9 -7 -3 -7 -6 -5 -4 -3 -2 -2 -3 -2 -1 -1 -1 -3 -5 -4 -2 -3 -3 -2 -2 -2 -4 -1 1 -3 -7 -8 -7 -5 -4 -8 -7 -5 -6
0 0 1 1 1 -1 -5 -5 -7 -8 -5 -7 -5 -4 -3 -4 -5 -3 -1 -1 -1 -2 -4 -6 -6 -7 -5 0 -0 -2 -2 -2 -2 -3 -2 -9 -8 -7 -7 -7 -8 -7 -7 -7
-0 -0 -0 0 1 0 -1 -2 -2 -5 -3 -6 -4 -4 -4 -4 -5 -6 -2 -0 -1 -2 -4 -6 -8 -8 -7 -3 -2 1 -0 -1 -1 -1 -1 -4 -9 -6 -6 -6 -7 -6 -5 -6
0 -1 -1 -0 -0 -0 -1 -1 -1 -3 -1 -3 -6 -5 -3 -4 -4 -6 -2 -1 -1 -2 -3 -6 -7 -7 -7 -6 -6 -2 -1 0 -0 -1 -0 1 -6 -6 -6 -6 -5 -5 -6 -6
1 -0 -1 -1 -1 -1 -2 -2 -2 -3 -3 -2 -4 -4 -4 -4 -3 -4 -2 -3 -4 -4 -4 -5 -6 -5 -6 -7 -7 -5 -3 -4 -4 -3 -3 -6 -5 -6 -5 -5 -6 -6 -6 -7
3 0 -0 -1 -2 -3 -3 -2 -2 -3 -4 -3 -3 -2 -3 -2 -3 -4 -2 -3 -4 -3 -4 -4 -4 -3 -6 -6 -7 -8 -7 -5 -5 -5 -6 -5 -5 -5 -4 -7 -6 -8 -8 -8
4 1 -0 -0 -1 -2 -3 -3 -2 -3 -3 -0 -1 -3 -2 -3 -2 -2 -2 -2 -3 -3 -3 -2 -3 -4 -6 -6 -6 -7 -7 -6 -6 -6 -7 -7 -6 -4 -6 -6 -8 -8 -8 -8
4 2 0 -0 -1 -1 -3 -3 -3 -2 -2 1 -1 -2 -2 -2 -2 -2 -2 -2 -2 -1 -1 -0 -1 -2 -4 -4 -3 -4 -7 -7 -6 -7 -7 -5 -6 -6 -9 -8 -7 -7 -7 -7
4 3 0 -0 -1 -1 -3 -1 -3 -3 -1 -2 1 -2 -2 -2 -2 -2 -2 -2 -1 -0 -1 -1 -2 -1 -2 -1 -2 -5 -5 -7 -7 -6 -4 -4 -6 -8 -8 -8 -8 -9 -10 -10
4 3 -0 -1 -1 -1 -2 -0 -2 -3 -3 -2 1 0 -2 -2 -2 -2 -1 -1 -0 -1 -1 -1 -1 -1 -1 -0 -1 -4 -4 -5 -4 -3 -5 -8 -7 -7 -7 -8 -10 -12 -12 -12
4 2 -1 -1 -1 -1 -1 -2 -3 -4 -5 -3 3 1 -2 -2 -2 -1 -2 -0 -0 -1 -1 -1 -1 -1 -0 1 -2 -2 -3 -3 -3 -6 -9 -7 -7 -9 -10 -10 -10 -10 -10 -10
3 1 -1 -0 0 -1 -1 -1 -2 -3 -3 1 0 3 3 -2 -1 -1 -2 -1 -1 -1 -1 -1 -1 -1 1 -1 -2 -2 -2 -5 -6 -8 -7 -9 -9 -9 -9 -11 -13 -16 -17 -18
3 1 0 -0 -1 -1 -2 -2 -2 -1 -1 -2 -0 -1 0 -1 -1 -2 -1 -2 -1 1 -2 -1 -1 -1 -2 -2 -2 -2 -3 -7 -7 -8 -9 -9 -10 -13 -17 -18 -19 -19 -18 -18
1 1 0 -0 -1 -1 -2 -0 -0 -1 -1 -1 -1 -1 -1 -2 -1 -1 -2 -0 -1 1 -0 -1 -1 -1 -3 -3 -2 -4 -7 -7 -10 -9 -9 -14 -17 -17 -18 -20 -20 -18 -16 -15
0 0 -0 -0 -1 -1 -0 0 -2 -2 -1 -1 -2 -2 -1 -2 -3 -2 -2 -0 -2 0 -2 -1 -1 -2 -3 -3 -3 -7 -9 -8 -8 -9 -13 -16 -17 -17 -16 -17 -20 -19 -19 -21
0 0 -0 -0 -1 0 0 -0 -2 -1 -2 -2 -2 -2 -2 -3 -2 -2 -2 -1 -0 -4 -2 -1 -2 -4 -6 -6 -7 -8 -8 -10 -14 -15 -16 -17 -17 -17 -16 -16 -18 -18 -18 -21
0 -1 -1 1 -0 -0 -1 -3 -1 -2 -2 -2 -1 -2 -2 -3 -2 -2 -1 -2 -4 -2 -1 -1 -3 -4 -6 -6 -8 -10 -11 -14 -15 -15 -15 -15 -15 -16 -17 -17 -17 -17 -18 -18
-1 -1 1 -0 -2 -3 -3 -5 -3 -3 -2 -2 -2 -2 -3 -2 -2 -3 -3 -2 -1 -2 -2 -2 -3 -5 -6 -8 -10 -12 -14 -15 -14 -15 -15 -15 -15 -15 -15 -17 -16 -18 -18 -16
-2 -2 -1 -3 -3 -3 -2 -2 -2 -2 -2 -2 -3 -2 -1 -1 -1 -1 -1 -1 -1 -2 -1 -3 -5 -7 -9 -10 -11 -12 -14 -14 -14 -14 -14 -13 -14 -14 -15 -15 -15 -16 -15 -16
-3 -2 -3 -3 -3 -3 -2 -2 -2 -2 -2 -1 -1 -0 -1 -3 -1 -1 -3 -2 -1 -3 -5 -6 -7 -11 -14 -15 -16 -17 -18 -17 -16 -16 -16 -15 -14 -13 -12 -13 -16 -16 -15 -14
Wind_Speed
14 11 9 9 8 6 4 3 1 9 4 1 5 3 4 5 3 4 1 2 5 4 1 3 3 5 5 3 1 3 2 4 5 2 3 3 6 5 7 3 4 2 3 2
16 14 11 9 6 5 4 1 1 6 3 2 4 3 3 3 1 2 0 2 4 2 2 1 3 3 4 3 2 2 1 4 5 3 3 3 6 9 5 1 3 6 3 4
15 16 12 8 5 5 4 2 1 3 4 3 3 2 3 5 2 1 0 2 2 5 3 2 5 5 2 2 3 4 3 0 3 0 4 2 5 8 10 8 3 3 8 5
14 15 15 10 5 5 2 2 2 1 1 4 3 1 1 1 1 1 1 1 1 1 3 4 4 4 5 3 1 1 3 1 2 2 1 1 3 5 13 15 12 5 3 3
12 13 14 12 7 4 4 1 1 1 2 1 1 1 2 2 4 1 2 1 2 2 3 5 5 4 4 2 4 2 0 1 1 2 1 4 9 11 12 14 16 16 17 18
10 11 12 12 10 5 2 1 2 0 3 1 2 2 2 2 3 1 2 2 1 3 5 7 7 6 5 4 2 4 2 2 1 1 1 5 9 15 17 10 8 13 15 9
8 9 9 10 9 8 3 1 1 2 2 2 1 1 0 1 1 1 2 1 2 3 8 8 7 7 6 5 5 2 3 2 0 2 3 3 3 4 1 15 8 12 11 8
8 7 8 8 8 7 7 3 0 2 1 1 3 4 2 3 3 2 2 4 3 10 2 1 1 2 2 2 2 1 3 3 2 2 4 5 3 4 5 6 3 3 7 4
9 8 7 6 7 6 4 5 3 0 4 2 2 3 4 2 3 4 3 4 7 2 3 2 3 3 1 3 3 1 1 3 4 2 3 3 5 6 3 2 4 6 2 7
10 9 7 7 6 6 5 4 6 1 2 1 3 2 1 2 1 1 4 6 5 4 3 3 3 2 1 3 5 5 4 4 8 6 4 5 5 6 2 3 4 0 5 9
11 10 8 7 6 6 5 5 5 4 2 4 5 4 2 2 2 2 6 4 4 5 4 2 2 3 3 2 2 5 8 7 4 4 5 5 9 5 3 4 2 5 8 9
13 11 10 9 8 7 7 7 6 6 3 4 5 7 8 7 4 2 6 3 1 0 3 1 1 3 2 3 2 3 4 3 1 6 0 6 8 7 6 3 4 4 8 11
15 13 11 10 9 8 8 8 8 6 2 3 3 5 8 8 9 8 3 2 3 0 3 2 2 5 1 3 4 3 5 4 3 1 4 6 5 3 3 3 2 5 7 9
17 15 13 12 10 9 8 8 7 4 3 3 3 5 6 6 10 10 10 4 2 2 2 2 2 3 2 1 3 3 3 8 6 4 5 4 5 8 1 1 2 3 5 6
18 16 14 13 12 10 9 9 7 4 3 3 0 4 7 7 7 8 9 9 6 2 1 2 2 1 2 1 2 5 10 6 5 2 8 2 10 5 3 3 3 4 6 7
18 17 15 14 12 10 7 4 6 6 1 1 2 3 2 2 4 7 8 8 8 4 3 3 3 2 2 3 3 5 10 5 2 4 7 6 8 8 4 3 2 4 5 7
19 17 16 14 13 10 6 4 3 5 4 2 2 2 2 5 4 3 2 6 4 5 4 5 2 2 3 3 4 0 7 8 7 7 6 6 8 5 3 3 4 5 8 11
19 18 16 15 12 11 12 14 12 10 5 4 1 0 2 6 2 2 4 3 3 4 2 2 4 4 4 5 10 3 5 7 5 5 8 10 9 6 3 3 6 8 10 13
23 20 16 12 10 7 9 10 9 10 7 2 2 3 2 8 3 2 2 3 3 2 3 3 4 3 6 8 8 12 10 9 12 12 10 7 5 4 6 9 12 15 18 19
28 23 13 8 8 11 5 3 3 4 5 5 4 3 3 6 5 3 4 1 1 2 2 3 3 4 14 6 4 7 10 10 14 13 8 5 4 6 9 12 14 16 18 21
29 15 9 11 12 10 5 4 3 4 3 7 4 9 4 6 3 3 3 2 2 2 2 2 3 4 3 6 12 8 14 14 11 9 6 4 7 10 12 14 16 18 21 25
27 20 17 16 8 4 3 4 4 5 4 6 6 6 3 4 4 3 4 3 1 3 3 2 3 1 1 7 15 16 15 12 8 4 2 7 11 13 16 19 21 22 24 27
27 10 10 9 6 5 7 9 4 4 8 8 7 4 5 3 3 3 2 5 3 2 2 4 4 2 7 12 17 15 10 5 1 3 7 10 14 16 17 21 23 25 28 29
10 10 8 6 5 7 5 4 4 5 10 17 12 6 2 2 3 3 4 2 2 2 4 4 0 8 11 10 8 6 3 7 11 14 15 17 18 19 21 24 26 29 32 33
9 9 7 8 6 5 9 13 13 11 19 21 10 5 3 2 2 2 3 4 4 4 3 1 3 13 10 6 1 8 15 17 19 21 22 23 23 24 27 28 30 32 35 36
9 6 6 7 9 6 8 11 12 24 25 14 5 3 3 3 2 5 5 4 5 2 2 3 13 11 2 9 13 19 24 24 24 24 24 24 26 28 31 33 34 36 36 34
7 5 6 9 9 13 13 13 13 26 23 3 4 6 4 3 3 4 4 4 1 1 4 14 6 9 16 21 24 28 29 29 27 28 29 30 31 32 34 37 37 36 34 33
Wind_Direction
5 356 348 357 2 11 14 67 23 4 24 81 82 120 144 164 151 182 127 312 67 77 18 60 70 114 45 48 60 119 34 111 143 123 87 315 298 265 230 261 175 257 312 83
5 2 357 354 15 24 24 5 45 18 88 79 106 120 77 355 355 16 111 85 50 62 75 116 93 82 58 59 30 44 124 144 126 153 187 193 232 211 233 338 316 221 268 101
11 2 6 5 15 38 29 341 8 48 55 80 69 112 132 142 162 155 113 90 169 162 125 21 137 124 86 61 70 26 314 31 333 159 59 74 198 202 204 214 216 220 236 114
5 7 5 14 13 18 53 13 51 69 44 84 110 213 108 81 59 37 340 130 337 360 123 125 125 116 136 125 114 61 330 240 38 319 304 284 255 205 204 214 226 235 110 240
359 3 4 13 20 10 59 12 228 13 83 83 276 163 119 159 143 286 115 187 88 33 82 20 159 147 189 134 170 173 225 132 11 251 216 245 252 238 223 227 239 251 269 283
351 358 2 8 19 18 51 42 104 59 130 218 280 46 91 145 163 80 35 108 130 93 70 77 71 70 65 94 183 173 195 150 247 251 125 302 265 237 217 221 228 238 245 267
336 350 356 6 13 26 11 325 127 277 117 231 27 152 106 157 8 30 107 41 315 122 126 104 79 71 72 81 66 22 170 177 218 301 265 244 79 67 16 220 241 235 251 281
315 333 347 356 10 16 30 21 30 309 275 318 180 173 166 148 116 81 77 41 44 140 131 197 161 141 158 150 52 176 330 230 222 254 229 315 172 203 158 185 145 245 226 249
296 309 324 340 354 0 10 17 30 215 299 129 124 173 190 234 197 151 117 114 139 150 262 243 242 224 107 173 159 132 204 261 258 192 260 263 64 136 157 191 163 108 31 327
280 290 304 314 331 345 343 353 2 30 287 250 165 204 199 151 173 48 142 161 169 188 213 239 234 205 3 193 190 167 173 207 226 230 276 288 109 133 158 228 99 3 313 307
265 274 283 295 308 318 328 311 335 350 301 276 222 210 174 161 216 248 135 150 189 181 226 245 194 251 177 234 144 180 180 172 194 195 229 262 158 147 223 107 170 317 324 328
256 262 270 279 289 300 308 302 310 317 246 257 250 233 224 214 205 154 181 349 110 254 248 246 315 231 183 278 213 212 222 243 214 220 180 107 141 90 110 62 348 335 314 314
250 254 261 271 282 288 290 294 302 309 269 291 242 242 233 226 219 205 196 208 203 210 208 334 341 257 221 226 219 216 227 196 238 314 157 195 185 161 136 328 347 324 324 322
244 248 252 263 272 283 287 283 286 274 253 263 220 228 223 226 224 224 222 231 221 234 178 261 272 264 190 298 347 273 46 158 213 244 192 185 178 150 61 47 33 9 2 350
243 243 246 251 261 276 286 284 269 247 230 315 223 239 239 229 220 216 219 218 208 195 229 232 238 272 244 229 291 236 188 189 195 256 119 59 123 135 136 105 48 16 5 6
242 239 239 245 255 266 287 295 241 213 21 272 254 248 230 211 205 212 203 190 187 179 208 230 240 269 272 266 254 257 205 207 198 155 138 109 138 142 116 105 36 19 13 3
236 233 233 237 248 254 238 254 285 213 302 278 262 206 222 181 158 156 156 184 199 184 194 212 227 205 231 262 250 350 197 185 174 173 157 131 150 148 113 65 41 19 9 2
228 220 220 226 238 254 256 256 259 264 259 251 259 183 210 185 180 159 158 161 184 207 239 205 197 167 202 249 240 222 168 173 166 174 174 151 154 144 108 51 19 7 355 342
218 205 205 208 227 236 245 253 251 240 225 248 210 207 189 166 156 134 151 169 197 217 246 219 187 192 221 230 228 197 187 178 169 155 142 125 111 66 23 7 355 345 337 332
199 183 176 191 195 207 200 217 235 214 218 226 240 183 162 160 167 155 143 204 256 231 178 148 230 257 251 241 214 188 176 169 154 143 137 117 66 13 352 344 337 329 324 321
174 171 177 168 166 164 178 202 208 179 236 206 209 191 163 186 168 152 196 184 198 252 121 235 243 260 242 178 162 147 158 155 152 143 120 43 352 335 326 325 323 321 319 318
179 168 142 139 168 160 196 197 174 212 221 179 180 170 159 166 154 156 172 180 175 239 132 251 252 235 197 167 165 156 149 146 140 132 338 323 321 318 311 310 316 318 318 320
162 150 156 146 168 190 201 186 195 204 172 167 155 140 165 146 162 110 161 184 210 127 208 238 246 145 147 140 139 136 135 130 17 320 308 305 306 306 304 304 311 312 312 317
173 156 159 189 175 228 190 179 124 134 147 149 139 116 169 142 165 154 167 121 159 222 237 242 219 167 152 139 122 99 39 342 332 327 321 314 312 308 306 306 308 308 309 314
163 161 189 191 174 109 147 140 128 130 148 141 123 119 175 141 144 197 142 169 223 227 242 343 157 148 144 131 72 343 340 330 324 321 317 316 314 309 307 309 307 309 311 314
154 162 143 153 139 136 155 160 139 146 151 137 127 138 176 188 187 182 205 200 220 199 203 159 145 142 9 329 323 323 322 320 315 312 309 307 307 306 305 306 308 308 308 309
154 149 164 162 131 153 158 161 155 157 151 157 148 187 183 114 196 205 197 217 180 200 221 158 166 316 317 317 314 313 314 312 309 307 306 306 308 307 304 302 304 303 306 304
Height
1503 1500 1497 1495 1492 1490 1491 1490 1490 1489 1488 1489 1489 1494 1494 1497 1497 1498 1497 1497 1493 1492 1494 1490 1491 1493 1496 1501 1501 1497 1501 1499 1511 1511 1517 1518 1515 1509 1504 1504 1510 1508 1507 1496
1503 1500 1497 1495 1493 1491 1489 1491 1491 1490 1488 1490 1491 1496 1496 1495 1494 1494 1495 1494 1495 1497 1496 1497 1497 1498 1505 1505 1503 1502 1503 1500 1512 1516 1518 1518 1516 1510 1509 1512 1512 1507 1501 1493
1504 1501 1498 1495 1494 1492 1491 1492 1491 1492 1491 1491 1489 1491 1493 1496 1498 1497 1496 1495 1495 1495 1497 1497 1499 1502 1507 1507 1507 1508 1507 1501 1501 1499 1504 1501 1509 1508 1511 1511 1512 1497 1498 1493
1505 1502 1499 1496 1494 1493 1493 1493 1494 1494 1491 1492 1493 1493 1493 1494 1494 1496 1496 1494 1494 1493 1495 1496 1500 1502 1506 1508 1509 1508 1507 1505 1512 1506 1508 1509 1506 1507 1509 1511 1505 1503 1496 1499
1506 1504 1501 1497 1495 1494 1494 1495 1494 1495 1494 1495 1494 1495 1494 1495 1497 1498 1497 1496 1498 1497 1494 1498 1497 1499 1499 1500 1508 1507 1508 1508 1511 1514 1511 1511 1509 1505 1503 1506 1504 1503 1501 1499
1507 1505 1502 1500 1497 1495 1494 1493 1494 1494 1496 1495 1493 1492 1494 1495 1497 1500 1499 1497 1497 1498 1503 1504 1504 1504 1504 1503 1504 1505 1507 1509 1510 1502 1510 1509 1503 1495 1497 1499 1499 1500 1502 1497
1507 1505 1504 1501 1499 1497 1496 1494 1494 1494 1491 1494 1494 1497 1497 1498 1499 1498 1501 1501 1499 1504 1504 1505 1506 1506 1507 1508 1509 1509 1508 1508 1512 1511 1509 1505 1493 1493 1493 1494 1496 1497 1499 1499
1506 1505 1504 1502 1500 1498 1496 1495 1495 1495 1490 1493 1494 1496 1497 1499 1500 1500 1502 1504 1505 1505 1507 1504 1504 1505 1507 1508 1512 1511 1512 1507 1508 1509 1497 1483 1493 1496 1496 1495 1495 1496 1498 1501
1505 1505 1504 1502 1501 1499 1497 1496 1495 1495 1495 1492 1494 1495 1496 1494 1495 1501 1503 1505 1506 1507 1506 1503 1499 1493 1493 1504 1511 1515 1514 1513 1510 1508 1504 1481 1483 1491 1493 1494 1492 1500 1501 1501
1503 1503 1503 1502 1501 1500 1499 1497 1496 1495 1494 1494 1495 1494 1495 1496 1497 1495 1501 1504 1506 1508 1502 1499 1495 1492 1499 1496 1498 1510 1511 1511 1509 1505 1500 1484 1489 1493 1495 1492 1498 1499 1499 1498
1501 1502 1502 1501 1501 1500 1499 1498 1496 1496 1495 1493 1493 1494 1495 1495 1497 1494 1501 1503 1503 1505 1501 1496 1491 1493 1494 1496 1491 1497 1496 1500 1502 1501 1501 1494 1490 1493 1491 1494 1496 1497 1497 1497
1499 1500 1500 1500 1500 1500 1499 1498 1496 1495 1494 1493 1492 1492 1493 1494 1495 1497 1498 1500 1499 1498 1497 1498 1495 1494 1496 1488 1479 1496 1493 1485 1484 1486 1480 1487 1489 1491 1493 1494 1495 1496 1496 1495
1496 1497 1498 1499 1499 1499 1498 1497 1496 1494 1493 1492 1491 1491 1492 1493 1493 1494 1497 1498 1498 1499 1499 1499 1497 1495 1492 1485 1483 1485 1489 1490 1488 1488 1483 1488 1490 1492 1492 1493 1493 1493 1493 1491
1493 1495 1496 1497 1497 1497 1496 1495 1495 1494 1493 1491 1490 1488 1489 1490 1491 1492 1494 1495 1496 1498 1499 1499 1497 1495 1495 1487 1489 1488 1485 1490 1484 1483 1483 1485 1486 1489 1491 1492 1491 1491 1490 1489
1489 1491 1493 1494 1495 1495 1495 1494 1493 1493 1495 1491 1490 1488 1488 1488 1488 1489 1491 1493 1496 1498 1499 1499 1497 1496 1496 1494 1494 1483 1481 1478 1480 1473 1478 1481 1485 1488 1489 1490 1490 1490 1489 1488
1485 1488 1490 1491 1493 1494 1494 1493 1491 1491 1491 1491 1488 1489 1486 1487 1487 1488 1489 1490 1493 1495 1497 1496 1496 1496 1497 1491 1482 1471 1473 1475 1476 1476 1479 1482 1484 1485 1486 1487 1487 1487 1487 1485
1481 1484 1487 1489 1490 1492 1494 1494 1492 1491 1491 1489 1488 1486 1486 1486 1487 1488 1489 1490 1492 1493 1493 1492 1493 1495 1496 1491 1480 1472 1473 1474 1475 1476 1478 1481 1483 1484 1485 1485 1485 1485 1484 1482
1477 1479 1483 1485 1488 1490 1490 1489 1489 1490 1490 1489 1487 1485 1487 1487 1488 1489 1488 1490 1492 1492 1491 1491 1489 1491 1492 1485 1471 1472 1473 1475 1477 1478 1479 1479 1481 1482 1482 1482 1482 1482 1481 1481
1472 1475 1479 1483 1484 1487 1485 1486 1487 1487 1491 1487 1485 1481 1480 1485 1487 1488 1489 1489 1490 1491 1489 1489 1490 1482 1477 1464 1466 1468 1471 1473 1474 1476 1480 1483 1485 1486 1486 1485 1483 1481 1480 1478
1464 1472 1475 1477 1477 1480 1484 1484 1486 1484 1483 1484 1481 1480 1481 1483 1485 1487 1489 1490 1487 1486 1485 1487 1486 1473 1463 1462 1464 1467 1470 1473 1475 1478 1481 1482 1483 1482 1480 1480 1479 1478 1476 1473
1455 1462 1467 1470 1474 1479 1481 1482 1482 1481 1480 1477 1476 1477 1479 1481 1481 1481 1485 1486 1487 1484 1484 1485 1476 1466 1461 1461 1463 1465 1468 1471 1474 1476 1478 1480 1480 1479 1478 1476 1475 1472 1470 1467
1447 1454 1461 1468 1472 1475 1478 1475 1477 1476 1469 1471 1472 1475 1477 1478 1479 1480 1483 1483 1487 1481 1486 1484 1473 1461 1462 1462 1462 1465 1468 1471 1472 1474 1475 1476 1477 1477 1476 1475 1471 1468 1464 1461
1444 1448 1455 1456 1465 1466 1462 1463 1464 1463 1462 1465 1469 1473 1475 1477 1478 1479 1480 1481 1480 1483 1482 1472 1461 1460 1462 1464 1466 1468 1471 1472 1473 1473 1473 1473 1472 1472 1471 1469 1467 1463 1458 1455
1434 1438 1447 1445 1451 1445 1440 1441 1444 1451 1455 1461 1466 1470 1474 1475 1477 1477 1478 1480 1481 1480 1476 1464 1459 1461 1464 1468 1470 1472 1473 1474 1472 1471 1470 1468 1467 1465 1464 1463 1460 1455 1450 1447
1423 1427 1427 1432 1432 1433 1436 1439 1444 1449 1455 1458 1465 1469 1472 1474 1476 1475 1477 1480 1474 1469 1462 1459 1461 1463 1465 1468 1469 1470 1470 1469 1468 1467 1464 1463 1461 1458 1454 1454 1451 1448 1443 1438
1413 1416 1420 1425 1427 1433 1437 1441 1442 1444 1452 1458 1463 1466 1467 1467 1468 1470 1468 1466 1461 1458 1459 1459 1461 1464 1466 1467 1466 1466 1465 1464 1463 1461 1457 1454 1452 1449 1446 1443 1442 1439 1435 1429
1408 1411 1414 1416 1419 1425 1432 1437 1439 1442 1449 1453 1458 1460 1458 1467 1464 1463 1463 1459 1456 1456 1456 1458 1461 1462 1462 1462 1460 1459 1458 1457 1454 1452 1449 1446 1443 1441 1438 1433 1431 1429 1424 1421